Weather History for KCOU - October, 2013

Change the Weather History Date:

Thursday, October 3, 2013

  Actual Average Record
Temperature  
Mean Temperature 76 °F 60 °F  
Max Temperature 85 °F 72 °F 94 °F (1897)
Min Temperature 67 °F 49 °F 32 °F (1987)
Degree Days  
Heating Degree Days 0 6  
Month to date heating degree days 0 18  
Since 1 July heating degree days 16 86  
Cooling Degree Days 11 1  
Month to date cooling degree days 31 5  
Year to date cooling degree days 1305 1232  
Growing Degree Days 26 (Base 50)    
Moisture  
Dew Point 67 °F    
Average Humidity 76    
Maximum Humidity 93    
Minimum Humidity 58    
Precipitation  
Precipitation T in 0.13 in 2.42 in (1986)
Month to date precipitation T 0.38  
Year to date precipitation 35.51 34.00  
Snow  
Snow 0.00 in 0.00 in 0.00 in (2013)
Month to date snowfall 0.0 0.0  
Since 1 July snowfall 0.0 0.0  
Since 1 September snowfall 0.0 0.0  
Snow Depth 0.00 in    
Sea Level Pressure  
Sea Level Pressure 29.89 in    
Wind  
Wind Speed 11 mph (South)    
Max Wind Speed 17 mph    
Max Gust Speed 23 mph    
Visibility 10 miles    
Events      
T = Trace of Precipitation, MM = Missing Value Source: NWS Daily Summary

Daily Weather History Graph

Daily Weather History Graph

Search for Another Location

Airport or City:

Trip Planner

Search our weather history database for the weather conditions in past years. The results will help you decide how hot, cold, wet, or windy it might be!

Date:

Astronomy

Oct. 03, 2013 Rise Set
Actual Time 7:06 AM CDT 6:48 PM CDT
Civil Twilight 6:40 AM CDT 7:14 PM CDT
Nautical Twilight 6:09 AM CDT 7:45 PM CDT
Astronomical Twilight 5:38 AM CDT 8:16 PM CDT
Moon 5:41 AM CDT (10/3) 5:56 PM CDT (10/3)
Length of Visible Light 12h 34m
Length of Day
11h 41m
Waning Crescent, 2% of the Moon is Illuminated
Oct 3
Waning Crescent
Oct 4
New
Oct 11
First Quarter
Oct 18
Full
Oct 26
Last Quarter

Hourly Weather History & Observations

Time (CDT) Temp. Heat Index Dew Point Humidity Pressure Visibility Wind Dir Wind Speed Gust Speed Precip Events Conditions
12:54 AM 71.1 °F - 68.0 °F 90% 29.93 in 10.0 mi South 12.7 mph - N/A   Mostly Cloudy
1:54 AM 71.1 °F - 66.9 °F 87% 29.93 in 10.0 mi South 11.5 mph - N/A   Overcast
2:54 AM 69.1 °F - 66.9 °F 93% 29.92 in 10.0 mi South 9.2 mph - N/A   Mostly Cloudy
3:25 AM 69.1 °F - 66.0 °F 90% 29.95 in 10.0 mi South 10.4 mph - N/A   Scattered Clouds
3:37 AM 69.1 °F - 66.0 °F 90% 29.94 in 10.0 mi South 9.2 mph - N/A   Partly Cloudy
3:54 AM 68.0 °F - 66.0 °F 93% 29.92 in 10.0 mi South 10.4 mph - N/A   Partly Cloudy
4:54 AM 68.0 °F - 66.0 °F 93% 29.92 in 10.0 mi South 11.5 mph - N/A   Clear
5:54 AM 68.0 °F - 66.0 °F 93% 29.93 in 10.0 mi South 11.5 mph - N/A   Overcast
6:54 AM 68.0 °F - 64.9 °F 90% 29.91 in 10.0 mi SSE 10.4 mph - 0.00 in   Scattered Clouds
7:54 AM 68.0 °F - 64.9 °F 90% 29.91 in 10.0 mi SSE 10.4 mph - N/A   Scattered Clouds
8:54 AM 69.1 °F - 66.0 °F 90% 29.92 in 10.0 mi South 12.7 mph - N/A   Scattered Clouds
9:54 AM 73.9 °F - 66.9 °F 79% 29.94 in 10.0 mi SSW 10.4 mph - N/A   Clear
10:54 AM 78.1 °F - 68.0 °F 71% 29.93 in 10.0 mi SSW 10.4 mph - N/A   Clear
11:54 AM 81.0 °F 84.1 °F 69.1 °F 67% 29.91 in 10.0 mi SSW 13.8 mph - N/A   Scattered Clouds
12:54 PM 82.9 °F 86.5 °F 69.1 °F 63% 29.88 in 10.0 mi South 13.8 mph - N/A   Mostly Cloudy
1:54 PM 84.9 °F 88.2 °F 68.0 °F 57% 29.87 in 10.0 mi SSW 11.5 mph - N/A   Scattered Clouds
2:54 PM 84.9 °F 88.2 °F 68.0 °F 57% 29.86 in 10.0 mi SSW 8.1 mph 17.3 mph N/A   Partly Cloudy
3:54 PM 82.9 °F 86.5 °F 69.1 °F 63% 29.85 in 10.0 mi SSE 9.2 mph - N/A   Partly Cloudy
4:54 PM 84.0 °F 87.0 °F 68.0 °F 58% 29.82 in 10.0 mi South 12.7 mph 21.9 mph N/A   Scattered Clouds
5:54 PM 82.0 °F 84.5 °F 66.9 °F 60% 29.81 in 10.0 mi South 13.8 mph - N/A   Clear
6:54 PM 78.1 °F - 66.9 °F 68% 29.83 in 10.0 mi South 10.4 mph - N/A   Clear
7:54 PM 75.9 °F - 66.0 °F 71% 29.84 in 10.0 mi South 10.4 mph - N/A   Clear
8:54 PM 73.9 °F - 66.9 °F 79% 29.86 in 10.0 mi SSE 11.5 mph - N/A   Clear
9:54 PM 73.0 °F - 66.9 °F 81% 29.86 in 10.0 mi SSE 11.5 mph - N/A   Clear
11:54 PM 72.0 °F - 68.0 °F 87% 29.86 in 10.0 mi SSE 11.5 mph - N/A   Clear